This is the latest recevied weather packets stored in our database for station/object KK4WXG. If no packets are shown the sender has not sent any weather packets the latest 10 day(s).
| Time | Temp. | Humidity | Pressure | Rain* | Wind** | Luminosity | Snow |
|---|---|---|---|---|---|---|---|
| 1777297667 | 14.44° C | 70% | 1024.7 hPa | 0 mm | - | 615 W/m² | - |
| 1777297061 | 14.44° C | 71% | 1024.4 hPa | 0 mm | - | 530 W/m² | - |
| 1777296453 | 14.44° C | 71% | 1024.3 hPa | 0 mm | - | 445 W/m² | - |
| 1777295846 | 14.44° C | 69% | 1024.3 hPa | 0 mm | - | 528 W/m² | - |
| 1777295544 | 13.89° C | 72% | 1024.2 hPa | 0 mm | - | 753 W/m² | - |
| 1777295241 | 13.89° C | 74% | 1024.3 hPa | 0 mm | - | 955 W/m² | - |
| 1777294939 | 13.89° C | 72% | 1024.4 hPa | 0 mm | - | 565 W/m² | - |
| 1777294634 | 13.89° C | 73% | 1024.2 hPa | 0 mm | - | 358 W/m² | - |
| 1777294027 | 13.33° C | 74% | 1024.5 hPa | 0 mm | - | 255 W/m² | - |
| 1777293114 | 11.67° C | 80% | 1024.2 hPa | 0 mm | - | 236 W/m² | - |
| 1777292813 | 11.11° C | 84% | 1024.1 hPa | 0 mm | - | 211 W/m² | - |
| 1777292510 | 11.11° C | 87% | 1024.3 hPa | 0 mm | - | 179 W/m² | - |
| 1777292206 | 10.56° C | 92% | 1024.1 hPa | 0 mm | - | 162 W/m² | - |
| 1777291902 | 10° C | 93% | 1024.1 hPa | 0 mm | - | 149 W/m² | - |
| 1777291599 | 10° C | 97% | 1024 hPa | 0 mm | - | 138 W/m² | - |
| 1777291296 | 9.44° C | 97% | 1024 hPa | 0 mm | - | 134 W/m² | - |
| 1777290993 | 8.89° C | 98% | 1023.9 hPa | 0 mm | - | 126 W/m² | - |
| 1777290690 | 8.33° C | 98% | 1023.9 hPa | 0 mm | - | 115 W/m² | - |
| 1777290386 | 8.33° C | 98% | 1023.9 hPa | 0 mm | - | 103 W/m² | - |
| 1777289779 | 7.78° C | 98% | 1023.7 hPa | 0 mm | - | 90 W/m² | - |
| 1777289171 | 5.56° C | 98% | 1023.7 hPa | 0 mm | - | 77 W/m² | - |
| 1777288868 | 3.89° C | 98% | 1023.4 hPa | 0 mm | - | 71 W/m² | - |
| 1777288564 | 3.33° C | 98% | 1023.2 hPa | 0 mm | - | 57 W/m² | - |
| 1777288261 | 2.78° C | 98% | 1023 hPa | 0 mm | - | 46 W/m² | - |
| 1777287957 | 2.78° C | 98% | 1023 hPa | 0 mm | - | 42 W/m² | - |
* Rain latest hour (hover to see other rain measurements)
** Current wind speed in m/s (hover to see current wind gust speed)